TimeEST,TemperatureF,Dew PointF,Humidity,Sea Level PressureIn,VisibilityMPH,Wind Direction,Wind SpeedMPH,Gust SpeedMPH,PrecipitationIn,Events,Conditions,WindDirDegrees,DateUTC
12:52 AM,37.9,32.0,79,30.17,10.0,West,8.1,-,N/A,,Clear,260,2012-12-05 05:52:00
1:52 AM,37.9,32.0,79,30.19,10.0,West,9.2,-,N/A,,Clear,280,2012-12-05 06:52:00
2:52 AM,37.0,28.9,73,30.22,10.0,WNW,9.2,-,N/A,,Clear,290,2012-12-05 07:52:00
3:52 AM,35.1,28.0,76,30.25,10.0,NW,9.2,-,N/A,,Clear,310,2012-12-05 08:52:00
4:52 AM,35.1,27.0,72,30.27,10.0,NW,11.5,-,N/A,,Clear,310,2012-12-05 09:52:00
5:52 AM,34.0,26.1,73,30.29,10.0,NW,11.5,-,N/A,,Clear,320,2012-12-05 10:52:00
6:52 AM,32.0,23.0,69,30.32,10.0,NNW,12.7,-,N/A,,Clear,340,2012-12-05 11:52:00
7:52 AM,30.0,21.0,69,30.35,10.0,NNW,12.7,-,N/A,,Clear,340,2012-12-05 12:52:00
9:52 AM,30.9,19.0,61,30.42,10.0,North,15.0,24.2,N/A,,Clear,360,2012-12-05 14:52:00
10:52 AM,33.1,19.0,56,30.43,10.0,North,9.2,-,N/A,,Clear,360,2012-12-05 15:52:00
11:52 AM,35.1,19.0,52,30.41,10.0,North,9.2,19.6,N/A,,Clear,360,2012-12-05 16:52:00
12:52 PM,36.0,19.0,50,30.39,10.0,North,8.1,16.1,N/A,,Clear,10,2012-12-05 17:52:00
1:52 PM,37.0,19.9,50,30.39,10.0,North,10.4,-,N/A,,Clear,350,2012-12-05 18:52:00
2:52 PM,37.0,19.0,48,30.39,10.0,NE,3.5,-,N/A,,Clear,50,2012-12-05 19:52:00
3:52 PM,37.0,19.9,50,30.40,10.0,NE,3.5,-,N/A,,Clear,50,2012-12-05 20:52:00
4:52 PM,36.0,19.0,50,30.40,10.0,NE,3.5,-,N/A,,Clear,40,2012-12-05 21:52:00
5:52 PM,30.9,19.0,61,30.41,10.0,Calm,Calm,-,N/A,,Clear,0,2012-12-05 22:52:00
6:52 PM,30.0,19.9,66,30.40,10.0,Calm,Calm,-,N/A,,Clear,0,2012-12-05 23:52:00
7:52 PM,28.0,19.9,72,30.41,10.0,Calm,Calm,-,N/A,,Clear,0,2012-12-06 00:52:00
8:52 PM,25.0,19.9,81,30.40,10.0,Calm,Calm,-,N/A,,Clear,0,2012-12-06 01:52:00
9:52 PM,25.0,19.9,81,30.40,10.0,Calm,Calm,-,N/A,,Clear,0,2012-12-06 02:52:00
10:52 PM,25.0,19.9,81,30.40,10.0,Calm,Calm,-,N/A,,Clear,0,2012-12-06 03:52:00
11:52 PM,21.9,19.0,89,30.38,10.0,Calm,Calm,-,N/A,,Clear,0,2012-12-06 04:52:00